Showing default

GLOBALSTAR M038, 25624

Orbit data source: Space-Track

GLOBALSTAR M038, 25624 is a payload satellite owned by Globalstar (US) in LEO that was launched on Tue, 09 Feb 1999 UTC via a SOYUZ-U-PVB launch vehicle from the Tyuratam Missile And Space Complex (TTMTR). Payload-class satellites include a variety of spacecraft equipped with specific instruments for various scientific and technological missions. These include communications satellites like Starlink; space stations such as the ISS; scientific satellites like the Hubble; Earth observation satellites from companies like Planet Labs, Umbra, and HawkEye 360; GPS; miniature CubeSats for education and research; and military/defense satellites.

Loading next visibility...
Identifier
25624, 1999-004D
Orbit
LEO
Country
Flag of UnknownUnknown / GLOB
Related business
Manufacturer
SS/Loral
Mission
Non-operational Commercial Communications
Bus & Motor
LS-400, LS-400 AOCS
Mass
450 kg wet, 380 kg dry
Launch date (UTC)
1999-02-09 (27 years ago)
Launch vehicle
SOYUZ-U-PVB
Launch site
Tyuratam Missile And Space Complex (TTMTR)
Object type
Payload
Rocket body
Debris
Shape & HBR
Box + 2 Pan, 6.0 m
Radar Cross Section
5.587 m², Large (>1 m²)

Expand to show TLE details & history
Last TLE update: 1 day ago

TLE from 1 day ago
0 GLOBALSTAR M038
1 25624U 99004D   25305.54204223 -.00000072  00000-0  18771-3 0  9995
2 25624  51.9994  36.0008 0001364 357.2963  15.7295 12.32534839219319
Epoch: 2025-11-01T13:00Z
TLE epoch observation values (Epoch: 2025-11-01T13:00:32.448Z)
Latitude
10.2219°
Longitude
167.85443°
Altitude
1,537.302 km
Speed
7.1 km/s
True Right ascension
02h 56m 14s
True Declination
10° 10' 04"
Sunlit
Object was in full shadow at epoch
Visualization orbit readout
Latitude
Unknown
Longitude
Unknown
Altitude
Unknown
Speed
Unknown
Apparent Right ascension
Unknown
Apparent Declination
Unknown
Sunlit
N/A
Visualization observer readout
Local Sidereal Time
11:26:57
Azimuth
Unknown
Elevation
Unknown
Doppler factor
Unknown
Orbital elements
Apogee altitude
1,539.875 km
Perigee altitude
1,537.715 km
Semi-major axis
7,916.932 km
Eccentricity
0.00014
Inclination
51.9994°
RAAN
36.0008°
Arg. of periapsis
357.2963°
True anomaly
15.73374°
Mean anomaly
15.7295°
Eccentric anomaly
15.73162°
Mean motion
3.08111 °/min
Orbital period
116.84 mins
BSTAR
0.00018771
Loading maneuver chart data...
Computing Atmospheric mass density...
Loading historical data...
Loading historical data...
Loading historical data...
Loading historical data...
Loading historical data...
Loading historical data...
Loading historical data...
Other satellites on launch #4 in the year 1999 (1999-02-09 UTC)

Documentation

Showing up to 5 results
|